Home   Weather   Qatif   Past weeks

Flag for Saudi Arabia Past Weather in Qatif, Saudi Arabia — Yesterday and Last 2 Weeks

Now
73 °F

Clear.


Feels Like: 77 °F
Forecast: 72 / 94 °F
Wind: 8 mph from Northwest

Location: King Fahd International Airport

Current Time: Apr 26, 2017 at 3:22:09 am

Latest Report: Apr 26, 2017 at 3:00 am


Visibility: 5 mi

Pressure: 29.77 "Hg

Humidity: 57%

Dew Point: 57 °F

Location of QatifLocation

Past Weather in Qatif — Graph

°F

Qatif Temperature Yesterday

Maximum temperature yesterday: 97 °F (at 11:00 am)
Minimum temperature yesterday: 70 °F (at 4:00 am)
Average temperature yesterday: 83 °F

High & Low Weather Summary for the Past Weeks

 TemperatureHumidityPressure
High106 °F (Apr 12, 2:00 pm)74% (Apr 13, 5:00 am)29.95 "Hg (Apr 13, 5:00 am)
Low64 °F (Apr 23, 4:00 am)6% (Apr 23, 3:00 pm)29.68 "Hg (Apr 24, 4:00 pm)
Average84 °F34%29.82 "Hg
* Reported Apr 11 2:00 am — Apr 26 2:00 am, Qatif, Weather by CustomWeather, © 2017

Note: Actual official high and low records may vary slightly from our data, if they occured in-between our weather recording intervals... More about our weather records

Advertising

Qatif Weather History for the Previous 24 Hours

Scroll right to see more
 ConditionsComfort  
Time TempWeatherWind HumidityBarometerVisibility
2:00 am
Wed, Apr 26
75 °FClear.7 mph61%29.77 "Hg5 mi
1:00 am75 °FClear.6 mph61%29.77 "Hg5 mi
12:00 am77 °FClear.10 mph51%29.77 "Hg10 mi
11:00 pm
Tue, Apr 25
77 °FClear.14 mph36%29.77 "Hg10 mi
10:00 pm77 °FClear.2 mph36%29.77 "Hg10 mi
9:00 pm81 °FClear.No wind32%29.77 "Hg10 mi
8:00 pm82 °FClear.3 mph30%29.77 "Hg10 mi
7:00 pm84 °FPassing clouds.6 mph33%29.77 "HgN/A
6:00 pm90 °FSunny.9 mph14%29.77 "Hg10 mi
5:00 pm91 °FSunny.14 mph13%29.74 "Hg10 mi
4:00 pm95 °FClear.14 mph14%29.74 "Hg5 mi
3:00 pm95 °FClear.14 mph15%29.77 "Hg4 mi
2:00 pm95 °FClear.15 mph16%29.77 "Hg4 mi
1:00 pm93 °FClear.15 mph28%29.77 "Hg4 mi
12:00 pm97 °FClear.13 mph22%29.80 "Hg5 mi
11:00 am97 °FClear.3 mph14%29.80 "Hg5 mi
10:00 am93 °FClear.2 mph20%29.80 "Hg5 mi
9:00 am86 °FClear.6 mph31%29.80 "Hg5 mi
8:00 am81 °FSunny.6 mph48%29.77 "Hg10 mi
7:00 am75 °FSunny.3 mph65%29.77 "Hg5 mi
6:00 am70 °FSunny.3 mph69%29.74 "Hg5 mi
5:00 am70 °FClear.3 mph69%29.74 "Hg10 mi
4:00 am70 °FClear.6 mph64%29.71 "Hg10 mi
3:00 am73 °FClear.3 mph57%29.71 "Hg10 mi
Weather by CustomWeather, © 2017

See weather overviewHow to use our weather pages